Regional Weather Roundup
Issued by NWS

Home | Current Version | Previous Version | Text Only | Print | Product List | Glossary On
Versions: 1 2 3 4 5 6 7 8 9 10 11 12 13 14 15 16 17 18 19 20 21 22 23 24 25 26 27 28 29 30 31 32 33 34 35 36 37 38 39 40 41 42 43 44 45 46 47 48 49 50
000
ASUS43 KFSD 051210
RWRSD

WEATHER ROUNDUP FOR SOUTH DAKOTA
NATIONAL WEATHER SERVICE SIOUX FALLS SD
700 AM CDT WED AUG 05 2015

NOTE: "FAIR" INDICATES FEW OR NO CLOUDS BELOW 12,000 FEET WITH NO
SIGNIFICANT WEATHER AND/OR OBSTRUCTIONS TO VISIBILITY.


SDZ001>005-009-010-012>017-051300-
NORTHWEST AND NORTH CENTRAL SOUTH DAKOTA

CITY           SKY/WX    TMP DP  RH WIND       PRES   REMARKS
BUFFALO          N/A     60  58  92 W6        29.91S
FAITH            N/A     65  61  87 SE15      29.95F
MOBRIDGE       PTCLDY    67  65  93 SE8       29.95F
$$

SDZ012>016-024>037-041>051-057-063-072>074-051300-
SOUTHWEST AND SOUTH CENTRAL SOUTH DAKOTA

CITY           SKY/WX    TMP DP  RH WIND       PRES   REMARKS
RAPID CTY ARPT PTCLDY    58  57  97 CALM      29.98F
PIERRE         MOCLDY    64  63  96 SE10      29.96S
CUSTER         PTCLDY    52  48  86 CALM      30.12F
ELLSWORTH AFB  PTCLDY    64  58  81 W3        29.97F
PHILIP         PTCLDY    64  63  96 E6        29.95F
PINE RIDGE     CLEAR     60  56  86 CALM      30.01F
WINNER         CLOUDY    66  63  90 SE8       29.99F
$$

SDZ004>011-016>023-039-040-051300-
NORTHEAST SOUTH DAKOTA

CITY           SKY/WX    TMP DP  RH WIND       PRES   REMARKS
ABERDEEN       MOCLDY    58  55  90 CALM      30.01R
WATERTOWN      MOCLDY    62  54  74 S5        30.04S
BROOKINGS      MOCLDY    55  52  88 CALM      30.06S
SISSETON         N/A     53  51  93 CALM      30.02S
$$

SDZ017-020-022-023-036>040-048>070-051300-
SOUTHEAST SOUTH DAKOTA

CITY           SKY/WX    TMP DP  RH WIND       PRES   REMARKS
SIOUX FALLS    MOCLDY    61  55  81 E6        30.03S
HURON          MOCLDY   N/A N/A N/A SE7       30.01R
CHAMBERLAIN    MOCLDY    62  62 100 SE6       30.00S
MITCHELL       PTCLDY    60  59  96 E3        30.01F
YANKTON        CLOUDY    64  63  94 E5        30.00R
$$

ABBREVIATIONS USED IN REMARKS
   TC - TEMPERATURE IN CELSIUS
  WCI - WIND CHILL INDEX
   HX - HEAT INDEX
  VSB - VISIBILITY




USA.gov is the U.S. government's official web portal to all federal, state and local government web resources and services.